Regional Weather Roundup
Issued by NWS Lake Charles, LA

Home | Current Version | Previous Version | Text Only | Print | Product List | Glossary On
Versions: 1 2 3 4 5 6 7 8 9 10 11 12 13 14 15 16 17 18 19 20 21 22 23 24 25 26 27 28 29 30 31 32 33 34 35 36 37 38 39 40 41 42 43 44 45 46 47 48 49 50
000
ASUS44 KLCH 041010
RWRLCH
RWRLCH
REGIONAL WEATHER ROUNDUP
NATIONAL WEATHER SERVICE LAKE CHARLES LA
500 AM CDT TUE AUG 04 2015

Note: "fair" indicates few or no clouds below 12,000 feet with no
significant weather and/or obstructions to visibility.


ACROSS SOUTHEAST TEXAS

CITY           SKY/WX    TMP DP  RH WIND       PRES   REMARKS
BEAUMONT       CLEAR     77  75  93 CALM      29.94R
BEAUMONT CITY    N/A     74  73  96 CALM      29.94S
ORANGE         SUNNY     74  74 100 CALM      29.95S FOG
JASPER         CLEAR     74  72  93 CALM      29.98R
$$

ACROSS CENTRAL LOUISIANA

CITY           SKY/WX    TMP DP  RH WIND       PRES   REMARKS
LEESVILLE      CLEAR     75  71  87 W2        29.95R
FULLERTON        N/A     72  70  93 CALM      29.94R
ALEXANDRIA INT CLEAR     75  73  93 CALM      29.93R
ESLER FIELD    PTCLDY    75  72  90 CALM      29.95R FOG
DERIDDER         N/A     74  72  93 CALM      29.97R
OAKDALE          N/A     70  69  96 CALM      29.95S FOG
OPELOUSAS        N/A     73  72  99 CALM      29.94S
$$

ACROSS SOUTHWEST AND SOUTH CENTRAL LOUISIANA

CITY           SKY/WX    TMP DP  RH WIND       PRES   REMARKS
SULPHUR        SUNNY     75  74  98 CALM      29.94S FOG
LAKE CHARLES   CLEAR     76  74  93 CALM      29.94R
CHENNAULT INT  CLEAR     77  75  93 CALM      29.94S
CAMERON PHI    SUNNY     81  77  89 NW3       29.97R
DEQUINCY         N/A     72  72 100 CALM      29.95R
JENNINGS         N/A     76  75  96 CALM      29.95R
LAFAYETTE      CLEAR     75  73  93 N5        29.95R
NEW IBERIA     CLEAR     76  74  93 N6        29.95R
ABBEVILLE      PTSUNNY   72  72 100 N5        29.95R FOG
PATTERSON      CLEAR     79  75  89 NE3       29.94R
SALT POINT       N/A     79  78  97 MISG      29.90S
$$

SELECTED SITES ACROSS THE REGION

CITY           SKY/WX    TMP DP  RH WIND       PRES   REMARKS
HOUSTON BUSH   PTCLDY    75  73  93 CALM      29.94R
HOUSTON HOBBY  PTCLDY    78  74  87 CALM      29.93S
GALVESTON      PTCLDY    83  76  79 CALM      29.95R
COLLEGE STAT   CLEAR     76  71  85 SE5       29.93S
CONROE         CLEAR     73  69  87 CALM      29.95R
HUNTSVILLE     CLEAR     76  72  87 S5        29.94S
LUFKIN         CLEAR     73  70  90 CALM      29.94S
SHREVEPORT     CLEAR     76  68  76 CALM      29.92S
MONROE         PTCLDY    73  70  90 NE5       29.95S
NATCHEZ MS     CLEAR     75  72  88 S5        29.97R
BATON ROUGE    CLEAR     75  73  93 NE3       29.95R
N.O. INTL ARPT PTCLDY    80  75  84 CALM      29.94S
SLIDELL        CLEAR     72  71  97 N3        29.95R
$$

MARINE REPORTS

STATION/POSITION TIME  TEMP    WIND        PRES    VSBY  WAVE
                       AIR SEA DIR/SP/G                  HT/PER
                 (UTC) (F)     (DEG/KT/KT) (MB)    (MI)  (FT/S)
BUOY 30 S HIGH I 0950   86 87  230/ 10/ 12 1013.4R         2/ 5
SEA RIM ST PARK  0900   78     300/  5/  6 1014.1R
PORT ARTHUR      0900      88  290/  6/  8 1013.5R
SABINE PASS N    0900   79 88  300/  2/  5 1013.7R
TEXAS POINT      NOT AVBL
CALCASIEU PASS   0900   81 87  350/  5/  6 1012.8R
LK CHARLES BEACH 0900   81 88                N/A
MARSH ISLAND     0900   83     360/  9/ 12   N/A           0
FRESH WATER LOCK 0900   80 89  350/  4/  7 1013.2R
AMERADA PASS     0900   81 86  130/  6/ 10 1012.9R
$$



USA.gov is the U.S. government's official web portal to all federal, state and local government web resources and services.